STARLINK-34065, 63813

Orbit data source: Space-Track

STARLINK-34065, 63813 is a payload satellite owned by SpaceX/Seattle (US) in LEO that was launched on Sun, 04 May 2025 UTC via an FALCON 9 launch vehicle from the Air Force Eastern Test Range (AFETR). Payload-class satellites include a variety of spacecraft equipped with specific instruments for various scientific and technological missions. These include communications satellites like Starlink; space stations such as the ISS; scientific satellites like the Hubble; Earth observation satellites from companies like Planet Labs, Umbra, and HawkEye 360; GPS; miniature CubeSats for education and research; and military/defense satellites.

Loading next visibility...
Identifier
63813, 2025-092K
Orbit
LEO
Country
Flag of USUS
Related business
Manufacturer
SpaceX/Seattle
Mission
Operational Commercial Communications
Bus & Motor
STARLINK V2MO, Unknown motor
Mass
575 kg wet, ~530 kg dry
Launch date (UTC)
2025-05-04 (6 months ago)
Launch vehicle
FALCON 9
Launch site
Air Force Eastern Test Range (AFETR)
Object type
Payload
Rocket body
Debris
Shape & HBR
Box + 2 Pan, 17.7 m
Radar Cross Section
36.964 m², Large (>1 m²)

Expand to show TLE details & history
Last TLE update: 1 day ago

TLE from 1 day ago
0 STARLINK-34065
1 63813U 25092K   25304.91183615  .00026678  00000-0  97568-3 0  9994
2 63813  43.0026 175.9732 0001920 288.2096  71.8547 15.27573020 28902
Epoch: 2025-10-31T21:53Z
TLE epoch observation values (Epoch: 2025-10-31T21:53:02.643Z)
Latitude
0.00001°
Longitude
167.26273°
Altitude
482.436 km
Speed
7.626 km/s
True Right ascension
11h 43m 53s
True Declination
0° 00' 00"
Sunlit
Object was in daylight at epoch
Visualization orbit readout
Latitude
Unknown
Longitude
Unknown
Altitude
Unknown
Speed
Unknown
Apparent Right ascension
Unknown
Apparent Declination
Unknown
Sunlit
N/A
Visualization observer readout
Local Sidereal Time
20:07:09
Azimuth
Unknown
Elevation
Unknown
Doppler factor
Unknown
Orbital elements
Apogee altitude
486.332 km
Perigee altitude
483.697 km
Semi-major axis
6,863.152 km
Eccentricity
0.00019
Inclination
43.0026°
RAAN
175.9732°
Arg. of periapsis
288.2096°
True anomaly
71.87561°
Mean anomaly
71.8547°
Eccentric anomaly
71.86515°
Mean motion
3.81731 °/min
Orbital period
94.31 mins
BSTAR
0.00097568
Loading maneuver chart data...
Computing Atmospheric mass density...
Loading historical data...
Loading historical data...
Loading historical data...
Loading historical data...
Loading historical data...
Loading historical data...
Loading historical data...

Documentation

Showing up to 5 results
|